| time (UTC) | temp F | wind direction | speed knots | gust knots | rain 1hr in | rain 24hr in | rain mn in | humidity % | barometer mb |
| 20260504175304 | 72 | 250 | 2.6 | 10.4 | 0.00 | 0.00 | 0.00 | 30 | 1006.2 |
| 20260504174804 | 72 | 218 | 3.5 | 7.8 | 0.00 | 0.00 | 0.00 | 31 | 1006.2 |
| 20260504174253 | 72 | 220 | 2.6 | 7.0 | 0.00 | 0.00 | 0.00 | 30 | 1006.3 |
| 20260504173754 | 72 | 209 | 3.5 | 8.7 | 0.00 | 0.00 | 0.00 | 30 | 1006.3 |
| 20260504173250 | 72 | 293 | 2.6 | 5.2 | 0.00 | 0.00 | 0.00 | 31 | 1006.3 |
| 20260504172810 | 71 | 325 | 1.7 | 7.0 | 0.00 | 0.00 | 0.00 | 32 | 1006.3 |
| 20260504172303 | 71 | 246 | 3.5 | 10.4 | 0.00 | 0.00 | 0.00 | 30 | 1006.6 |
| 20260504171801 | 71 | 238 | 4.3 | 7.0 | 0.00 | 0.00 | 0.00 | 30 | 1006.6 |
| 20260504171257 | 71 | 218 | 3.5 | 9.6 | 0.00 | 0.00 | 0.00 | 31 | 1006.6 |
| 20260504170808 | 70 | 245 | 3.5 | 6.1 | 0.00 | 0.00 | 0.00 | 30 | 1006.5 |
| 20260504170257 | 70 | 321 | 1.7 | 7.0 | 0.00 | 0.00 | 0.00 | 31 | 1006.5 |
| 20260504160257 | 68 | 213 | 2.6 | 12.2 | 0.00 | 0.00 | 0.00 | 32 | 1007.3 |
| 20260504150756 | 66 | 232 | 5.2 | 9.6 | 0.00 | 0.00 | 0.00 | 35 | 1007.9 |
| 20260504150302 | 66 | 222 | 1.7 | 11.3 | 0.00 | 0.00 | 0.00 | 36 | 1007.9 |
| 20260504141259 | 62 | 360 | 3.5 | 7.0 | 0.00 | 0.00 | 0.00 | 44 | 1008.4 |
| 20260504140758 | 61 | 360 | 1.7 | 4.3 | 0.00 | 0.00 | 0.00 | 45 | 1008.4 |
| 20260504140306 | 61 | 138 | 0.9 | 4.3 | 0.00 | 0.00 | 0.00 | 47 | 1008.4 |
| 20260504130808 | 54 | 126 | 0.9 | 3.5 | 0.00 | 0.00 | 0.00 | 59 | 1008.9 |
| 20260504130256 | 53 | 360 | 0.0 | 1.7 | 0.00 | 0.00 | 0.00 | 61 | 1008.9 |
| 20260504120257 | 43 | 263 | 0.9 | 2.6 | 0.00 | 0.00 | 0.00 | 76 | 1009.9 |
| 20260504110328 | 39 | 309 | 0.9 | 1.7 | 0.00 | 0.00 | 0.00 | 82 | 1009.9 |
| 20260504100304 | 39 | 234 | 0.0 | 0.0 | 0.00 | 0.00 | 0.00 | 82 | 1009.4 |
| 20260504081755 | 42 | 234 | 0.0 | 0.0 | 0.00 | 0.00 | 0.00 | 77 | 1009.3 |
| 20260504081310 | 42 | 234 | 0.0 | 0.0 | 0.00 | 0.00 | 0.00 | 77 | 1009.3 |
| 20260504080806 | 42 | 234 | 0.0 | 0.0 | 0.00 | 0.00 | 0.00 | 77 | 1009.4 |
| 20260504080257 | 42 | 234 | 0.0 | 0.0 | 0.00 | 0.00 | 0.00 | 77 | 1009.4 |
| 20260504070249 | 42 | 234 | 0.0 | 0.0 | 0.00 | 0.00 | 0.00 | 77 | 1009.1 |
| 20260504050256 | 40 | 234 | 0.0 | 0.0 | 0.00 | 0.00 | 0.00 | 77 | 1009.6 |
| 20260504045813 | 40 | 234 | 0.0 | 0.0 | 0.00 | 0.00 | 0.00 | 77 | 1009.7 |
| 20260504045308 | 40 | 234 | 0.0 | 0.0 | 0.00 | 0.00 | 0.00 | 77 | 1009.7 |
| 20260504044756 | 40 | 234 | 0.0 | 0.0 | 0.00 | 0.00 | 0.00 | 77 | 1009.7 |
| 20260504044314 | 40 | 234 | 0.0 | 0.0 | 0.00 | 0.00 | 0.00 | 77 | 1009.7 |
| 20260504043807 | 40 | 234 | 0.0 | 0.0 | 0.00 | 0.00 | 0.00 | 76 | 1009.7 |
| 20260504043303 | 40 | 234 | 0.0 | 0.0 | 0.00 | 0.00 | 0.00 | 76 | 1009.7 |
| 20260504042759 | 40 | 234 | 0.0 | 0.0 | 0.00 | 0.00 | 0.00 | 75 | 1009.7 |
| 20260504042257 | 40 | 234 | 0.0 | 0.0 | 0.00 | 0.00 | 0.00 | 75 | 1009.5 |
| 20260504041754 | 40 | 234 | 0.0 | 0.0 | 0.00 | 0.00 | 0.00 | 75 | 1009.5 |
| 20260504041307 | 40 | 234 | 0.0 | 0.0 | 0.00 | 0.00 | 0.00 | 75 | 1009.5 |
| 20260504040805 | 40 | 234 | 0.0 | 0.0 | 0.00 | 0.00 | 0.00 | 74 | 1009.5 |
| 20260504040256 | 40 | 234 | 0.0 | 0.0 | 0.00 | 0.00 | 0.00 | 74 | 1009.5 |
| 20260504035832 | 40 | 234 | 0.0 | 0.0 | 0.00 | 0.00 | 0.00 | 74 | 1009.5 |
| 20260504035305 | 40 | 234 | 0.0 | 0.0 | 0.00 | 0.00 | 0.00 | 73 | 1009.4 |
| 20260504034808 | 40 | 234 | 0.0 | 0.9 | 0.00 | 0.00 | 0.00 | 73 | 1009.4 |
| 20260504034302 | 40 | 234 | 0.0 | 0.9 | 0.00 | 0.00 | 0.00 | 73 | 1009.4 |
| 20260504033759 | 40 | 234 | 0.0 | 0.0 | 0.00 | 0.00 | 0.00 | 72 | 1009.3 |
| 20260504033315 | 41 | 234 | 0.0 | 0.0 | 0.00 | 0.00 | 0.00 | 73 | 1009.3 |
| 20260504032753 | 41 | 234 | 0.0 | 0.0 | 0.00 | 0.00 | 0.00 | 72 | 1009.2 |
| 20260504032254 | 41 | 234 | 0.0 | 0.0 | 0.00 | 0.00 | 0.00 | 72 | 1009.2 |
| 20260504031754 | 41 | 234 | 0.0 | 0.0 | 0.00 | 0.00 | 0.00 | 72 | 1009.2 |
| 20260504031305 | 41 | 234 | 0.0 | 0.0 | 0.00 | 0.00 | 0.00 | 71 | 1009.2 |
| 20260504030757 | 41 | 234 | 0.0 | 0.0 | 0.00 | 0.00 | 0.00 | 71 | 1009.1 |
| 20260504030307 | 41 | 234 | 0.0 | 0.0 | 0.00 | 0.00 | 0.00 | 70 | 1009.1 |
| 20260504025819 | 41 | 234 | 0.0 | 0.0 | 0.00 | 0.00 | 0.00 | 70 | 1009.1 |
| 20260504025258 | 41 | 234 | 0.0 | 0.0 | 0.00 | 0.00 | 0.00 | 69 | 1009.1 |
| 20260504024752 | 42 | 234 | 0.0 | 0.0 | 0.00 | 0.00 | 0.00 | 68 | 1009.1 |
| 20260504024252 | 42 | 234 | 0.0 | 0.0 | 0.00 | 0.00 | 0.00 | 68 | 1009.3 |
| 20260504023804 | 42 | 234 | 0.0 | 0.0 | 0.00 | 0.00 | 0.00 | 66 | 1009.3 |
| 20260504023323 | 42 | 234 | 0.0 | 0.0 | 0.00 | 0.00 | 0.00 | 66 | 1009.3 |
| 20260504022759 | 42 | 234 | 0.0 | 0.0 | 0.00 | 0.00 | 0.00 | 65 | 1009.3 |
| 20260504022256 | 43 | 234 | 0.0 | 0.0 | 0.00 | 0.00 | 0.00 | 65 | 1008.9 |
| 20260504021752 | 43 | 234 | 0.0 | 0.0 | 0.00 | 0.00 | 0.00 | 64 | 1008.9 |
| 20260504021305 | 43 | 234 | 0.0 | 1.7 | 0.00 | 0.00 | 0.00 | 64 | 1008.9 |
| 20260504020757 | 43 | 234 | 0.0 | 1.7 | 0.00 | 0.00 | 0.00 | 64 | 1008.9 |
| 20260504020305 | 44 | 234 | 0.0 | 0.9 | 0.00 | 0.00 | 0.00 | 63 | 1008.9 |
| 20260504015758 | 44 | 234 | 0.0 | 0.9 | 0.00 | 0.00 | 0.00 | 62 | 1008.9 |
| 20260504015259 | 44 | 234 | 0.0 | 0.9 | 0.00 | 0.00 | 0.00 | 62 | 1008.8 |
| 20260504014753 | 44 | 234 | 0.0 | 0.0 | 0.00 | 0.00 | 0.00 | 61 | 1008.8 |
| 20260504014254 | 45 | 234 | 0.0 | 0.0 | 0.00 | 0.00 | 0.00 | 59 | 1008.6 |
| 20260504013805 | 45 | 234 | 0.0 | 0.9 | 0.00 | 0.00 | 0.00 | 58 | 1008.6 |
| 20260504013259 | 45 | 234 | 0.0 | 0.9 | 0.00 | 0.00 | 0.00 | 57 | 1008.6 |
| 20260504012802 | 46 | 234 | 0.0 | 0.9 | 0.00 | 0.00 | 0.00 | 57 | 1008.6 |
| 20260504012259 | 46 | 234 | 0.0 | 0.0 | 0.00 | 0.00 | 0.00 | 56 | 1008.5 |
| 20260504011802 | 46 | 234 | 0.0 | 0.0 | 0.00 | 0.00 | 0.00 | 55 | 1008.5 |
| 20260504011304 | 47 | 234 | 0.0 | 0.0 | 0.00 | 0.00 | 0.00 | 54 | 1008.5 |
| 20260504010758 | 47 | 234 | 0.0 | 0.0 | 0.00 | 0.00 | 0.00 | 52 | 1008.3 |
| 20260504010311 | 47 | 234 | 0.0 | 0.9 | 0.00 | 0.00 | 0.00 | 52 | 1008.3 |
| 20260504005808 | 48 | 234 | 0.0 | 0.9 | 0.00 | 0.00 | 0.00 | 51 | 1008.3 |
| 20260504005311 | 48 | 234 | 0.0 | 0.0 | 0.00 | 0.00 | 0.00 | 51 | 1007.9 |
| 20260504004804 | 49 | 234 | 0.0 | 0.0 | 0.00 | 0.00 | 0.00 | 50 | 1007.9 |
| 20260504004258 | 49 | 234 | 0.0 | 0.0 | 0.00 | 0.00 | 0.00 | 48 | 1007.9 |
| 20260504003810 | 49 | 234 | 0.0 | 0.0 | 0.00 | 0.00 | 0.00 | 46 | 1007.8 |
| 20260504003307 | 50 | 234 | 0.0 | 0.0 | 0.00 | 0.00 | 0.00 | 46 | 1007.8 |
| 20260504002804 | 50 | 234 | 0.0 | 0.0 | 0.00 | 0.00 | 0.00 | 47 | 1007.8 |
| 20260504002303 | 50 | 234 | 0.0 | 0.0 | 0.00 | 0.00 | 0.00 | 44 | 1007.5 |
| 20260504001802 | 51 | 234 | 0.0 | 0.0 | 0.00 | 0.00 | 0.00 | 44 | 1007.5 |
| 20260504001320 | 51 | 234 | 0.0 | 0.0 | 0.00 | 0.00 | 0.00 | 42 | 1007.5 |
| 20260504000756 | 52 | 234 | 0.0 | 0.0 | 0.00 | 0.00 | 0.00 | 40 | 1007.4 |
| 20260504000316 | 52 | 233 | 0.0 | 0.0 | 0.00 | 0.00 | 0.00 | 40 | 1007.4 |
| 20260503235750 | 52 | 233 | 0.0 | 0.0 | 0.00 | 0.00 | 0.00 | 38 | 1007.4 |
| 20260503235301 | 53 | 232 | 0.0 | 0.0 | 0.00 | 0.00 | 0.00 | 39 | 1007.4 |
| 20260503234756 | 53 | 360 | 0.0 | 0.0 | 0.00 | 0.00 | 0.00 | 38 | 1007.4 |
| 20260503234331 | 53 | 360 | 0.0 | 1.7 | 0.00 | 0.00 | 0.00 | 38 | 1007.4 |
| 20260503233752 | 53 | 360 | 0.0 | 2.6 | 0.00 | 0.00 | 0.00 | 37 | 1007.3 |
| 20260503233251 | 53 | 360 | 0.9 | 2.6 | 0.00 | 0.00 | 0.00 | 36 | 1007.3 |
| 20260503232831 | 53 | 360 | 0.0 | 4.3 | 0.00 | 0.00 | 0.00 | 36 | 1007.3 |
| 20260503232311 | 53 | 360 | 0.0 | 4.3 | 0.00 | 0.00 | 0.00 | 36 | 1007.3 |
| 20260503231804 | 53 | 360 | 0.9 | 3.5 | 0.00 | 0.00 | 0.00 | 36 | 1007.3 |
| 20260503231300 | 54 | 360 | 0.9 | 2.6 | 0.00 | 0.00 | 0.00 | 37 | 1007.3 |
| 20260503230753 | 54 | 360 | 0.9 | 3.5 | 0.00 | 0.00 | 0.00 | 37 | 1007.3 |
| 20260503230301 | 54 | 360 | 1.7 | 3.5 | 0.00 | 0.00 | 0.00 | 36 | 1007.3 |
| 20260503225757 | 54 | 360 | 0.9 | 1.7 | 0.00 | 0.00 | 0.00 | 37 | 1007.3 |
| 20260503225313 | 54 | 360 | 0.9 | 4.3 | 0.00 | 0.00 | 0.00 | 36 | 1007.3 |
| 20260503224809 | 54 | 360 | 0.9 | 4.3 | 0.00 | 0.00 | 0.00 | 36 | 1007.3 |
| 20260503224306 | 54 | 360 | 1.7 | 3.5 | 0.00 | 0.00 | 0.00 | 37 | 1007.3 |
| 20260503223803 | 54 | 360 | 0.0 | 2.6 | 0.00 | 0.00 | 0.00 | 38 | 1007.3 |
| 20260503223254 | 54 | 360 | 0.0 | 2.6 | 0.00 | 0.00 | 0.00 | 35 | 1007.3 |
| 20260503222754 | 55 | 360 | 0.0 | 1.7 | 0.00 | 0.00 | 0.00 | 37 | 1007.3 |
| 20260503222252 | 55 | 360 | 0.0 | 3.5 | 0.00 | 0.00 | 0.00 | 36 | 1007.3 |
| 20260503221801 | 55 | 360 | 0.9 | 3.5 | 0.00 | 0.00 | 0.00 | 35 | 1007.3 |
| 20260503221303 | 55 | 360 | 0.9 | 3.5 | 0.00 | 0.00 | 0.00 | 35 | 1007.3 |
| 20260503220800 | 55 | 360 | 0.9 | 3.5 | 0.00 | 0.00 | 0.00 | 35 | 1007.3 |
| 20260503220314 | 55 | 360 | 0.9 | 3.5 | 0.00 | 0.00 | 0.00 | 36 | 1007.3 |
| 20260503215809 | 55 | 360 | 0.9 | 1.7 | 0.00 | 0.00 | 0.00 | 37 | 1007.3 |
| 20260503215249 | 54 | 360 | 0.9 | 6.1 | 0.00 | 0.00 | 0.00 | 37 | 1007.3 |
| 20260503214753 | 54 | 360 | 2.6 | 6.1 | 0.00 | 0.00 | 0.00 | 37 | 1007.3 |
| 20260503214311 | 54 | 360 | 0.9 | 6.1 | 0.00 | 0.00 | 0.00 | 37 | 1007.3 |
| 20260503213750 | 54 | 360 | 0.9 | 4.3 | 0.00 | 0.00 | 0.00 | 37 | 1007.3 |
| 20260503213255 | 54 | 360 | 0.9 | 6.1 | 0.00 | 0.00 | 0.00 | 36 | 1007.3 |
| 20260503212829 | 54 | 360 | 1.7 | 4.3 | 0.00 | 0.00 | 0.00 | 36 | 1007.3 |
| 20260503212308 | 54 | 360 | 0.9 | 2.6 | 0.00 | 0.00 | 0.00 | 37 | 1007.3 |
| 20260503211820 | 54 | 360 | 0.9 | 4.3 | 0.00 | 0.00 | 0.00 | 37 | 1007.3 |
| 20260503211254 | 54 | 360 | 1.7 | 8.7 | 0.00 | 0.00 | 0.00 | 36 | 1007.1 |
| 20260503210806 | 54 | 360 | 2.6 | 8.7 | 0.00 | 0.00 | 0.00 | 37 | 1007.1 |
| 20260503210259 | 54 | 360 | 0.9 | 4.3 | 0.00 | 0.00 | 0.00 | 36 | 1007.1 |
| 20260503205812 | 54 | 360 | 0.9 | 4.3 | 0.00 | 0.00 | 0.00 | 36 | 1007.1 |
| 20260503205305 | 54 | 360 | 1.7 | 4.3 | 0.00 | 0.00 | 0.00 | 36 | 1007.0 |
| 20260503204758 | 54 | 360 | 1.7 | 6.1 | 0.00 | 0.00 | 0.00 | 36 | 1007.0 |
| 20260503204312 | 54 | 360 | 1.7 | 6.1 | 0.00 | 0.00 | 0.00 | 36 | 1007.0 |
| 20260503203807 | 54 | 360 | 1.7 | 5.2 | 0.00 | 0.00 | 0.00 | 37 | 1007.1 |
| 20260503203301 | 54 | 360 | 1.7 | 8.7 | 0.00 | 0.00 | 0.00 | 34 | 1007.1 |
| 20260503202802 | 54 | 360 | 0.9 | 8.7 | 0.00 | 0.00 | 0.00 | 37 | 1007.1 |
| 20260503202257 | 54 | 360 | 0.9 | 3.5 | 0.00 | 0.00 | 0.00 | 36 | 1006.9 |
| 20260503201758 | 54 | 360 | 1.7 | 3.5 | 0.00 | 0.00 | 0.00 | 35 | 1006.9 |
| 20260503201253 | 54 | 360 | 0.9 | 3.5 | 0.00 | 0.00 | 0.00 | 36 | 1006.9 |
| 20260503200753 | 54 | 360 | 1.7 | 7.0 | 0.00 | 0.00 | 0.00 | 35 | 1006.9 |
| 20260503200306 | 54 | 360 | 1.7 | 7.0 | 0.00 | 0.00 | 0.00 | 36 | 1006.9 |
| 20260503195759 | 54 | 360 | 0.9 | 4.3 | 0.00 | 0.00 | 0.00 | 36 | 1006.9 |
| 20260503195253 | 54 | 360 | 0.9 | 4.3 | 0.00 | 0.00 | 0.00 | 37 | 1007.1 |
| 20260503194807 | 54 | 360 | 1.7 | 4.3 | 0.00 | 0.00 | 0.00 | 37 | 1007.1 |
| 20260503194303 | 54 | 360 | 1.7 | 4.3 | 0.00 | 0.00 | 0.00 | 36 | 1007.1 |
| 20260503193757 | 53 | 360 | 0.9 | 4.3 | 0.00 | 0.00 | 0.00 | 38 | 1007.2 |
| 20260503193312 | 53 | 360 | 0.9 | 6.1 | 0.00 | 0.00 | 0.00 | 38 | 1007.2 |
| 20260503192757 | 53 | 360 | 0.9 | 6.1 | 0.00 | 0.00 | 0.00 | 38 | 1007.2 |
| 20260503192257 | 53 | 360 | 0.9 | 3.5 | 0.00 | 0.00 | 0.00 | 38 | 1007.3 |
| 20260503191754 | 53 | 360 | 0.9 | 6.1 | 0.00 | 0.00 | 0.00 | 37 | 1007.3 |
| 20260503191308 | 53 | 360 | 1.7 | 6.1 | 0.00 | 0.00 | 0.00 | 37 | 1007.3 |
| 20260503190757 | 53 | 360 | 1.7 | 6.1 | 0.00 | 0.00 | 0.00 | 36 | 1007.1 |
| 20260503190308 | 53 | 360 | 2.6 | 5.2 | 0.00 | 0.00 | 0.00 | 37 | 1007.1 |
| 20260503185807 | 53 | 360 | 2.6 | 4.3 | 0.00 | 0.00 | 0.00 | 36 | 1007.1 |
| 20260503185259 | 53 | 360 | 1.7 | 4.3 | 0.00 | 0.00 | 0.00 | 38 | 1006.9 |
| 20260503184756 | 53 | 360 | 0.9 | 6.1 | 0.00 | 0.00 | 0.00 | 38 | 1006.9 |
| 20260503184259 | 53 | 360 | 0.9 | 6.1 | 0.00 | 0.00 | 0.00 | 38 | 1006.9 |
| 20260503183803 | 53 | 360 | 1.7 | 4.3 | 0.00 | 0.00 | 0.00 | 38 | 1006.9 |
| 20260503183302 | 53 | 360 | 0.9 | 3.5 | 0.00 | 0.00 | 0.00 | 39 | 1006.9 |
| 20260503182806 | 54 | 360 | 0.9 | 4.3 | 0.00 | 0.00 | 0.00 | 39 | 1006.9 |
| 20260503182258 | 54 | 360 | 1.7 | 4.3 | 0.00 | 0.00 | 0.00 | 39 | 1007.0 |
| 20260503181758 | 54 | 360 | 1.7 | 4.3 | 0.00 | 0.00 | 0.00 | 38 | 1007.0 |
| 20260503181330 | 54 | 360 | 2.6 | 4.3 | 0.00 | 0.00 | 0.00 | 39 | 1007.0 |
| 20260503180801 | 54 | 360 | 0.9 | 5.2 | 0.00 | 0.00 | 0.00 | 38 | 1007.0 |
| 20260503180316 | 54 | 360 | 1.7 | 4.3 | 0.00 | 0.00 | 0.00 | 38 | 1007.0 |
| 20260503175810 | 54 | 360 | 1.7 | 5.2 | 0.00 | 0.00 | 0.00 | 37 | 1007.0 |